Tracking 19827 objects as of 21-Aug-2019
HD Live streaming from Space Station
objects crossing your sky now

SL-8 R/B

Track SL-8 R/B now!
10-day predictions


NORAD ID: 11304
Int'l Code: 1979-024J
Perigee: 1,466.1 km
Apogee: 1,696.8 km
Inclination: 74.0 °
Period: 117.6 minutes
Semi major axis: 7952 km
RCS: 6.3043 m2 (large)
Launch date: March 15, 1979
Source: Commonwealth of Independent States (former USSR) (CIS)
Launch site: PLESETSK MISSILE AND SPACE COMPLEX (PKMTR)

Note: This is a ROCKET BODY
aabbcc
Your satellite tracking list
Your tracking list is empty




NASA's NSSDC Master Catalog

Two Line Element Set (TLE):
1 11304U 79024J   19233.47706695 -.00000016  00000-0 -12729-4 0  9997
2 11304  74.0371 260.0081 0145093 353.6203   6.2982 12.24200176807179
Source of the keplerian elements: AFSPC